N7NKE Weather Reports


time (UTC)temp
C
wind
direction
speed
KPH
gust
KPH
rain 1hr
cm
rain 24hr
cm
rain mn
cm
humidity
%
barometer
mb
20220124105005 0 182 0.0 3.2 0.00 0.00 0.00 94 1025.5
20220124104504 0 182 1.6 3.2 0.00 0.00 0.00 94 1025.5
20220124104005 0 182 0.0 0.0 0.00 0.00 0.00 94 1025.5
20220124103505 0 182 0.0 3.2 0.00 0.00 0.00 94 1025.5
20220124103004 0 182 0.0 1.6 0.00 0.00 0.00 94 1025.5
20220124102504 0 182 1.6 3.2 0.00 0.00 0.00 94 1025.5
20220124102005 0 182 0.0 1.6 0.00 0.00 0.00 94 1025.6
20220124101505 0 182 0.0 1.6 0.00 0.00 0.00 94 1025.6
20220124101004 0 182 1.6 3.2 0.00 0.00 0.00 94 1025.6
20220124100506 0 182 0.0 1.6 0.00 0.00 0.00 94 1025.7
20220124100004 0 182 3.2 4.8 0.00 0.00 0.00 94 1025.5
20220124095505 0 147 0.0 1.6 0.00 0.00 0.00 94 1025.7
20220124095006 0 147 1.6 3.2 0.00 0.00 0.00 94 1025.6
20220124094505 0 147 0.0 1.6 0.00 0.00 0.00 94 1025.7
20220124094005 0 147 0.0 1.6 0.00 0.00 0.00 94 1025.7
20220124093505 0 147 1.6 3.2 0.00 0.00 0.00 94 1025.6
20220124093005 0 147 1.6 3.2 0.00 0.00 0.00 94 1025.5
20220124092505 0 176 1.6 3.2 0.00 0.00 0.00 94 1025.4
20220124092006 0 183 0.0 3.2 0.00 0.00 0.00 94 1025.5
20220124091505 0 183 3.2 4.8 0.00 0.00 0.00 94 1025.5
20220124091005 0 137 1.6 3.2 0.00 0.00 0.00 94 1025.7
20220124090505 0 55 1.6 3.2 0.00 0.00 0.00 94 1025.8
20220124090005 0 150 0.0 3.2 0.00 0.00 0.00 94 1025.8
20220124085505 0 150 0.0 3.2 0.00 0.00 0.00 93 1025.7
20220124085005 0 150 1.6 3.2 0.00 0.00 0.00 94 1025.7
20220124084505 0 150 1.6 3.2 0.00 0.00 0.00 94 1025.9
20220124084005 0 150 1.6 1.6 0.00 0.00 0.00 93 1025.8
20220124083505 1 150 0.0 1.6 0.00 0.00 0.00 94 1025.7
20220124083006 1 150 1.6 3.2 0.00 0.00 0.00 94 1025.7
20220124082505 1 189 1.6 3.2 0.00 0.00 0.00 94 1025.8
20220124082005 1 189 3.2 4.8 0.00 0.00 0.00 94 1025.7
20220124081505 1 157 1.6 3.2 0.00 0.00 0.00 93 1025.8
20220124081005 1 50 1.6 3.2 0.00 0.00 0.00 93 1026.0
20220124080505 1 44 0.0 1.6 0.00 0.00 0.00 93 1025.9
20220124080005 1 44 0.0 1.6 0.00 0.00 0.00 93 1026.0
20220124075505 1 44 0.0 0.0 0.00 0.00 0.00 93 1026.1
20220124075005 1 44 0.0 1.6 0.00 0.00 0.00 93 1026.1
20220124074505 1 44 0.0 3.2 0.00 0.00 0.00 94 1026.1
20220124074004 1 45 1.6 3.2 0.00 0.00 0.00 94 1026.1
20220124073505 1 46 1.6 3.2 0.00 0.00 0.00 93 1026.0
20220124073005 1 298 0.0 1.6 0.00 0.00 0.00 93 1026.0
20220124072505 1 298 0.0 1.6 0.00 0.00 0.00 93 1026.0
20220124072005 1 298 0.0 1.6 0.00 0.00 0.00 94 1026.0
20220124071505 1 298 0.0 1.6 0.00 0.00 0.00 94 1026.1
20220124071005 1 293 0.0 3.2 0.00 0.00 0.00 94 1026.1
20220124070505 2 238 0.0 1.6 0.00 0.00 0.00 93 1026.0
20220124070005 2 238 0.0 3.2 0.00 0.00 0.00 94 1026.1
20220124065505 2 238 1.6 3.2 0.00 0.00 0.00 94 1026.0
20220124065005 2 238 1.6 3.2 0.00 0.00 0.00 94 1026.1
20220124064504 1 238 1.6 3.2 0.00 0.00 0.00 93 1026.0
20220124064005 1 270 1.6 3.2 0.00 0.00 0.00 93 1026.1
20220124063506 1 271 0.0 1.6 0.00 0.00 0.00 93 1026.2
20220124063005 1 270 1.6 1.6 0.00 0.00 0.00 93 1026.0
20220124062504 1 270 0.0 1.6 0.00 0.00 0.00 93 1026.0
20220124062005 1 270 0.0 1.6 0.00 0.00 0.00 93 1025.9
20220124061505 2 270 0.0 0.0 0.00 0.00 0.00 93 1025.9
20220124061005 2 270 0.0 0.0 0.00 0.00 0.00 93 1026.0
20220124060505 2 270 1.6 1.6 0.00 0.00 0.00 93 1025.9
20220124060005 2 271 0.0 1.6 0.00 0.00 0.00 93 1025.8
20220124055504 2 270 1.6 3.2 0.00 0.00 0.00 93 1025.9
20220124055005 2 5 0.0 1.6 0.00 0.00 0.00 93 1025.9
20220124054505 2 5 0.0 3.2 0.00 0.00 0.00 92 1026.0
20220124054005 2 5 3.2 4.8 0.00 0.00 0.00 92 1026.0
20220124053505 2 224 1.6 3.2 0.00 0.00 0.00 92 1026.0
20220124053005 2 222 0.0 1.6 0.00 0.00 0.00 92 1026.0
20220124052505 2 222 1.6 3.2 0.00 0.00 0.00 93 1026.0
20220124052005 2 222 1.6 3.2 0.00 0.00 0.00 93 1025.9
20220124051505 3 222 1.6 3.2 0.00 0.00 0.00 93 1025.9
20220124051005 3 222 3.2 4.8 0.00 0.00 0.00 92 1025.9
20220124050505 3 222 3.2 4.8 0.00 0.00 0.00 92 1025.9
20220124050006 3 223 0.0 1.6 0.00 0.00 0.00 92 1026.0
20220124045505 3 222 0.0 1.6 0.00 0.00 0.00 92 1026.0
20220124045004 3 222 0.0 3.2 0.00 0.00 0.00 92 1026.0
20220124044504 3 222 1.6 4.8 0.00 0.00 0.00 92 1025.9
20220124044004 3 222 3.2 4.8 0.00 0.00 0.00 92 1025.9
20220124043505 3 222 3.2 4.8 0.00 0.00 0.00 92 1025.9
20220124043005 3 222 1.6 3.2 0.00 0.00 0.00 92 1026.0
20220124042504 3 222 1.6 3.2 0.00 0.00 0.00 92 1025.9
20220124042005 3 222 1.6 3.2 0.00 0.00 0.00 92 1025.8
20220124041504 3 222 3.2 3.2 0.00 0.00 0.00 92 1025.9
20220124041005 3 222 1.6 3.2 0.00 0.00 0.00 92 1025.8
20220124040505 3 222 1.6 1.6 0.00 0.00 0.00 92 1025.9
20220124040005 3 222 1.6 1.6 0.00 0.00 0.00 91 1025.8
20220124035506 3 222 0.0 1.6 0.00 0.00 0.00 91 1025.8
20220124035005 3 222 0.0 0.0 0.00 0.00 0.00 91 1025.8
20220124034504 4 222 0.0 0.0 0.00 0.00 0.00 91 1025.7
20220124034004 4 222 0.0 0.0 0.00 0.00 0.00 91 1025.7
20220124033505 4 222 0.0 1.6 0.00 0.00 0.00 91 1025.6
20220124033005 4 222 0.0 1.6 0.00 0.00 0.00 91 1025.6
20220124032505 4 222 1.6 3.2 0.00 0.00 0.00 91 1025.5
20220124032004 5 222 1.6 3.2 0.00 0.00 0.00 91 1025.5
20220124031505 5 223 1.6 3.2 0.00 0.00 0.00 91 1025.5
20220124031005 5 232 3.2 4.8 0.00 0.00 0.00 91 1025.5
20220124030505 5 232 3.2 4.8 0.00 0.00 0.00 91 1025.4
20220124030005 5 250 1.6 3.2 0.00 0.00 0.00 90 1025.4
20220124025504 5 246 3.2 4.8 0.00 0.00 0.00 90 1025.3
20220124025005 5 234 3.2 4.8 0.00 0.00 0.00 89 1025.3
20220124024505 5 234 3.2 4.8 0.00 0.00 0.00 89 1025.4
20220124024005 5 336 0.0 3.2 0.00 0.00 0.00 89 1025.5
20220124023505 5 331 1.6 3.2 0.00 0.00 0.00 88 1025.5
20220124023005 5 232 1.6 3.2 0.00 0.00 0.00 88 1025.5
20220124022504 6 232 0.0 1.6 0.00 0.00 0.00 88 1025.4
20220124022004 6 232 1.6 3.2 0.00 0.00 0.00 88 1025.3
20220124021506 6 232 3.2 4.8 0.00 0.00 0.00 88 1025.3
20220124021005 6 233 1.6 3.2 0.00 0.00 0.00 88 1025.3
20220124020505 6 227 1.6 4.8 0.00 0.00 0.00 88 1025.3
20220124020005 6 232 3.2 4.8 0.00 0.00 0.00 88 1025.3
20220124015505 6 244 3.2 4.8 0.00 0.00 0.00 87 1025.2
20220124015005 6 244 3.2 4.8 0.00 0.00 0.00 87 1025.2
20220124014505 6 237 3.2 4.8 0.00 0.00 0.00 87 1025.1
20220124014005 7 222 3.2 4.8 0.00 0.00 0.00 86 1025.1
20220124013504 7 216 3.2 4.8 0.00 0.00 0.00 86 1025.0
20220124013005 7 215 3.2 4.8 0.00 0.00 0.00 86 1025.0
20220124012504 7 222 3.2 4.8 0.00 0.00 0.00 85 1025.0
20220124012004 7 236 3.2 4.8 0.00 0.00 0.00 84 1024.9
20220124011505 7 248 3.2 4.8 0.00 0.00 0.00 83 1024.8
20220124011005 7 248 3.2 4.8 0.00 0.00 0.00 83 1024.9
20220124010504 8 248 1.6 3.2 0.00 0.00 0.00 83 1024.9
20220124010005 8 248 1.6 3.2 0.00 0.00 0.00 82 1024.9
20220124005505 8 248 1.6 3.2 0.00 0.00 0.00 82 1025.0
20220124005005 8 248 1.6 3.2 0.00 0.00 0.00 81 1024.9
20220124004504 8 248 1.6 3.2 0.00 0.00 0.00 81 1024.9
20220124004004 9 240 3.2 4.8 0.00 0.00 0.00 80 1024.9
20220124003504 9 246 1.6 3.2 0.00 0.00 0.00 79 1024.9
20220124003005 9 221 1.6 3.2 0.00 0.00 0.00 79 1025.1
20220124002504 10 189 1.6 3.2 0.00 0.00 0.00 79 1025.0
20220124002005 10 189 0.0 1.6 0.00 0.00 0.00 78 1025.1
20220124001504 10 189 0.0 1.6 0.00 0.00 0.00 78 1025.1
20220124001005 10 189 0.0 3.2 0.00 0.00 0.00 77 1025.1
20220124000504 10 189 1.6 4.8 0.00 0.00 0.00 75 1025.1
20220124000005 10 129 3.2 4.8 0.00 0.00 0.00 72 1025.1
20220123235505 10 148 3.2 4.8 0.00 0.00 0.00 76 1025.1
20220123235005 10 110 3.2 4.8 0.00 0.00 0.00 74 1025.2
20220123234504 10 161 1.6 4.8 0.00 0.00 0.00 75 1025.1
20220123234005 10 102 1.6 4.8 0.00 0.00 0.00 74 1025.1
20220123233505 10 52 1.6 3.2 0.00 0.00 0.00 74 1025.0
20220123233005 10 37 0.0 3.2 0.00 0.00 0.00 75 1025.0
20220123232504 10 37 1.6 3.2 0.00 0.00 0.00 74 1025.0
20220123232005 10 37 1.6 1.6 0.00 0.00 0.00 73 1025.1
20220123231505 10 37 1.6 3.2 0.00 0.00 0.00 72 1025.1
20220123231005 10 44 1.6 3.2 0.00 0.00 0.00 73 1025.1
20220123230504 10 44 1.6 3.2 0.00 0.00 0.00 74 1025.2
20220123230005 10 5 1.6 3.2 0.00 0.00 0.00 74 1025.2
20220123225504 10 333 1.6 4.8 0.00 0.00 0.00 75 1025.2
20220123225005 10 6 1.6 4.8 0.00 0.00 0.00 75 1025.3
20220123224505 10 88 1.6 4.8 0.00 0.00 0.00 74 1025.3
20220123224004 10 352 1.6 3.2 0.00 0.00 0.00 76 1025.3
20220123223504 10 328 1.6 4.8 0.00 0.00 0.00 76 1025.3
20220123223005 10 18 3.2 4.8 0.00 0.00 0.00 76 1025.4
20220123222505 10 39 3.2 4.8 0.00 0.00 0.00 77 1025.4
20220123222005 10 340 3.2 4.8 0.00 0.00 0.00 76 1025.3
20220123221504 10 37 3.2 4.8 0.00 0.00 0.00 76 1025.3
20220123221004 10 58 3.2 4.8 0.00 0.00 0.00 75 1025.3
20220123220505 10 111 3.2 4.8 0.00 0.00 0.00 75 1025.3
20220123220005 10 92 3.2 4.8 0.00 0.00 0.00 76 1025.4
20220123215504 9 44 0.0 3.2 0.00 0.00 0.00 78 1025.5
20220123215005 9 36 3.2 4.8 0.00 0.00 0.00 78 1025.5
20220123214504 9 292 1.6 3.2 0.00 0.00 0.00 79 1025.5
20220123214005 9 206 0.0 1.6 0.00 0.00 0.00 78 1025.6
20220123213504 9 163 1.6 3.2 0.00 0.00 0.00 78 1025.7
20220123213004 9 41 1.6 4.8 0.00 0.00 0.00 79 1025.8
20220123212504 8 30 1.6 3.2 0.00 0.00 0.00 78 1025.8
20220123212005 8 12 1.6 3.2 0.00 0.00 0.00 77 1025.9
20220123211504 8 92 1.6 3.2 0.00 0.00 0.00 78 1026.0
20220123211005 8 259 1.6 3.2 0.00 0.00 0.00 77 1026.1
20220123210505 8 93 3.2 4.8 0.00 0.00 0.00 78 1026.1
20220123210005 8 330 0.0 4.8 0.00 0.00 0.00 76 1026.2
20220123205505 8 7 3.2 4.8 0.00 0.00 0.00 78 1026.2
20220123205005 8 80 3.2 4.8 0.00 0.00 0.00 77 1026.2
20220123204504 9 103 1.6 4.8 0.00 0.00 0.00 75 1026.4
20220123204005 9 52 1.6 4.8 0.00 0.00 0.00 77 1026.4
20220123203504 9 29 3.2 4.8 0.00 0.00 0.00 77 1026.4
20220123203005 9 37 3.2 4.8 0.00 0.00 0.00 78 1026.4
20220123202505 8 73 1.6 4.8 0.00 0.00 0.00 79 1026.5
20220123202005 8 3 1.6 4.8 0.00 0.00 0.00 79 1026.5
20220123201505 8 24 1.6 3.2 0.00 0.00 0.00 79 1026.6
20220123201005 8 86 1.6 4.8 0.00 0.00 0.00 77 1026.7
20220123200505 8 37 3.2 8.0 0.00 0.00 0.00 77 1026.8
20220123200005 8 37 3.2 4.8 0.00 0.00 0.00 79 1027.0
20220123195504 8 20 1.6 4.8 0.00 0.00 0.00 79 1027.1
20220123195005 8 73 3.2 4.8 0.00 0.00 0.00 79 1027.1
20220123194505 8 112 3.2 9.7 0.00 0.00 0.00 76 1027.2
20220123194005 8 114 3.2 4.8 0.00 0.00 0.00 78 1027.3
20220123193504 8 127 3.2 4.8 0.00 0.00 0.00 78 1027.4
20220123193005 7 124 3.2 4.8 0.00 0.00 0.00 80 1027.4
20220123192504 8 169 3.2 4.8 0.00 0.00 0.00 83 1027.4
20220123192006 7 119 3.2 4.8 0.00 0.00 0.00 82 1027.5
20220123191505 7 132 4.8 4.8 0.00 0.00 0.00 84 1027.6
20220123191005 7 144 1.6 4.8 0.00 0.00 0.00 84 1027.7
20220123190505 7 174 3.2 4.8 0.00 0.00 0.00 86 1027.7
20220123190005 6 142 3.2 4.8 0.00 0.00 0.00 87 1027.8
20220123185505 6 175 3.2 4.8 0.00 0.00 0.00 89 1027.8
20220123185005 5 190 0.0 3.2 0.00 0.00 0.00 89 1027.8
20220123184504 5 191 1.6 4.8 0.00 0.00 0.00 90 1027.9
20220123184005 5 146 1.6 3.2 0.00 0.00 0.00 92 1027.8
20220123183505 5 146 1.6 4.8 0.00 0.00 0.00 93 1028.0
20220123183005 5 112 3.2 4.8 0.00 0.00 0.00 94 1027.9
20220123182504 4 126 3.2 4.8 0.00 0.00 0.00 95 1027.9
20220123182004 3 124 3.2 4.8 0.00 0.00 0.00 95 1027.9
20220123181505 3 136 3.2 4.8 0.00 0.00 0.00 95 1027.9
20220123181004 2 184 0.0 1.6 0.00 0.00 0.00 95 1027.9
20220123180505 2 178 1.6 4.8 0.00 0.00 0.00 95 1027.9
20220123180004 2 125 1.6 4.8 0.00 0.00 0.00 95 1027.9
20220123175504 1 52 1.6 3.2 0.00 0.00 0.00 95 1027.9
20220123175005 1 44 1.6 3.2 0.00 0.00 0.00 95 1027.8
20220123174505 1 44 1.6 3.2 0.00 0.00 0.00 95 1027.9
20220123174005 1 44 1.6 3.2 0.00 0.00 0.00 95 1027.9
20220123173505 1 41 1.6 3.2 0.00 0.00 0.00 95 1027.9
20220123173005 0 143 1.6 3.2 0.00 0.00 0.00 95 1027.9
20220123172504 0 143 1.6 3.2 0.00 0.00 0.00 95 1027.9
20220123172004 0 143 1.6 3.2 0.00 0.00 0.00 95 1027.8
20220123171504 0 143 1.6 3.2 0.00 0.00 0.00 95 1027.9
20220123171004 0 143 0.0 3.2 0.00 0.00 0.00 95 1027.9
20220123170504 0 143 1.6 3.2 0.00 0.00 0.00 95 1027.8
20220123170004 0 196 1.6 3.2 0.00 0.00 0.00 94 1027.9
20220123165504 0 196 1.6 3.2 0.00 0.00 0.00 95 1027.8
20220123165005 0 196 0.0 1.6 0.00 0.00 0.00 94 1027.8
20220123164504 0 196 0.0 0.0 0.00 0.00 0.00 94 1027.8
20220123164005 -1 196 0.0 1.6 0.00 0.00 0.00 94 1027.8
20220123163504 -1 196 0.0 1.6 0.00 0.00 0.00 94 1027.8
20220123163004 -1 196 0.0 1.6 0.00 0.00 0.00 94 1027.8
20220123162504 -1 196 0.0 1.6 0.00 0.00 0.00 95 1027.9
20220123162005 -1 196 0.0 1.6 0.00 0.00 0.00 94 1027.9
20220123161505 -1 196 1.6 3.2 0.00 0.00 0.00 94 1027.9
20220123161004 -1 196 1.6 3.2 0.00 0.00 0.00 94 1027.9
20220123160504 -1 196 0.0 1.6 0.00 0.00 0.00 94 1028.0
20220123160005 -1 196 0.0 1.6 0.00 0.00 0.00 94 1028.0
20220123155505 -1 196 0.0 0.0 0.00 0.00 0.00 94 1028.0
20220123155004 -1 196 0.0 1.6 0.00 0.00 0.00 94 1028.0
20220123154505 -1 196 0.0 0.0 0.00 0.00 0.00 94 1027.8
20220123154005 -1 196 0.0 1.6 0.00 0.00 0.00 94 1027.9
20220123153504 -1 196 0.0 1.6 0.00 0.00 0.00 94 1027.9
20220123153005 -1 196 0.0 1.6 0.00 0.00 0.00 94 1027.9
20220123152505 -1 196 0.0 1.6 0.00 0.00 0.00 94 1028.0
20220123152004 -1 196 1.6 1.6 0.00 0.00 0.00 94 1028.0
20220123151504 -1 196 0.0 1.6 0.00 0.00 0.00 94 1028.1
20220123151005 -1 196 0.0 3.2 0.00 0.00 0.00 94 1028.0
20220123150504 -1 196 1.6 1.6 0.00 0.00 0.00 94 1028.0
20220123150005 -1 196 0.0 3.2 0.00 0.00 0.00 94 1028.0
20220123145504 -1 196 1.6 3.2 0.00 0.00 0.00 94 1027.9
20220123145005 -1 196 1.6 1.6 0.00 0.00 0.00 94 1027.8
20220123144505 -1 196 0.0 0.0 0.00 0.00 0.00 94 1027.8
20220123144005 -1 196 0.0 0.0 0.00 0.00 0.00 94 1027.8
20220123143505 -1 196 0.0 1.6 0.00 0.00 0.00 94 1027.9
20220123143005 -1 196 0.0 1.6 0.00 0.00 0.00 94 1027.8
20220123142505 -1 196 0.0 0.0 0.00 0.00 0.00 94 1027.8
20220123142005 -1 196 0.0 0.0 0.00 0.00 0.00 94 1027.7
20220123141504 -1 196 0.0 0.0 0.00 0.00 0.00 94 1027.7
20220123141005 0 196 0.0 0.0 0.00 0.00 0.00 94 1027.6
20220123140505 0 196 0.0 1.6 0.00 0.00 0.00 94 1027.8
20220123140004 0 196 0.0 3.2 0.00 0.00 0.00 94 1027.7
20220123135505 0 196 1.6 3.2 0.00 0.00 0.00 94 1027.7
20220123135004 0 196 1.6 3.2 0.00 0.00 0.00 94 1027.7
20220123134505 0 196 0.0 1.6 0.00 0.00 0.00 94 1027.7
20220123134004 0 196 0.0 1.6 0.00 0.00 0.00 94 1027.7
20220123133504 0 196 0.0 1.6 0.00 0.00 0.00 94 1027.7
20220123133005 0 196 0.0 1.6 0.00 0.00 0.00 94 1027.7
20220123132505 0 196 1.6 1.6 0.00 0.00 0.00 94 1027.7
20220123132005 0 196 1.6 3.2 0.00 0.00 0.00 94 1027.7
20220123131505 0 196 1.6 3.2 0.00 0.00 0.00 94 1027.7
20220123131005 0 196 0.0 1.6 0.00 0.00 0.00 94 1027.8
20220123130505 0 196 0.0 1.6 0.00 0.00 0.00 94 1027.8
20220123130004 0 196 0.0 1.6 0.00 0.00 0.00 94 1027.8
20220123125505 0 196 0.0 1.6 0.00 0.00 0.00 94 1027.8
20220123125005 0 196 0.0 0.0 0.00 0.00 0.00 94 1027.9
20220123124504 0 196 0.0 1.6 0.00 0.00 0.00 94 1027.9
20220123124005 0 196 1.6 3.2 0.00 0.00 0.00 94 1027.9
20220123123504 0 196 1.6 3.2 0.00 0.00 0.00 94 1027.9
20220123123005 0 196 1.6 3.2 0.00 0.00 0.00 94 1028.0
20220123122504 0 196 0.0 1.6 0.00 0.00 0.00 94 1028.0
20220123122005 0 196 0.0 1.6 0.00 0.00 0.00 94 1028.0
20220123121505 0 196 0.0 1.6 0.00 0.00 0.00 94 1028.1
20220123121005 0 196 0.0 0.0 0.00 0.00 0.00 94 1028.1
20220123120504 0 196 0.0 1.6 0.00 0.00 0.00 94 1028.1
20220123120005 0 196 0.0 1.6 0.00 0.00 0.00 94 1028.1
20220123115504 0 196 0.0 1.6 0.00 0.00 0.00 94 1028.2
20220123115004 0 196 1.6 3.2 0.00 0.00 0.00 94 1028.2
20220123114505 0 196 1.6 3.2 0.00 0.00 0.00 94 1028.2
20220123114004 0 197 1.6 3.2 0.00 0.00 0.00 94 1028.2
20220123113505 0 196 1.6 3.2 0.00 0.00 0.00 94 1028.2
20220123113004 0 196 0.0 1.6 0.00 0.00 0.00 94 1028.3
20220123112504 0 196 0.0 1.6 0.00 0.00 0.00 94 1028.4
20220123112004 0 196 0.0 3.2 0.00 0.00 0.00 94 1028.4
20220123111505 0 196 1.6 3.2 0.00 0.00 0.00 94 1028.4
20220123111004 0 196 1.6 3.2 0.00 0.00 0.00 94 1028.5
20220123110505 0 172 0.0 3.2 0.00 0.00 0.00 94 1028.5
20220123110004 0 173 0.0 1.6 0.00 0.00 0.00 94 1028.5
20220123105504 0 172 1.6 3.2 0.00 0.00 0.00 94 1028.6